Location: Arrodets-la-Barthe
(43.0306°N, 0.2829°E)
Time: 02:35:51
(UTC+00:00)

DUCHIFAT 1 - Pass Details

Date: 09 April 2023
Orbit: 567 x 581 km, 98.1° (Epoch: 29 May)

Event Time Altitude Azimuth Distance (km) Brightness Sun altitude
Rises 02:01:41 0° 35° (NE) 2,779 ? -32.5°
Reaches altitude 10° 02:05:09 10° 67° (ENE) 1,872 ? -32.2°
Maximum altitude 02:06:45 12° 90° (E) 1,738 ? -32.0°
Enters shadow 02:06:52 12° 92° (E) 1,738 ? -32.0°
